Vertical_Velocity
-5 -3 -3 -4 -7 -3 3 -7 0 -5 4 -6 -2 5 2 -2 2 4 1 -2 0 2 4 1 -2 -2 -3 0 1 -1 -5 1 -1 -6 3 2 5 -1 5 4 -3 -2 2 -12
0 -2 1 -5 -4 -8 -12 -7 -3 -3 1 -1 -3 -0 -1 1 2 2 2 2 2 2 -2 -6 -0 0 2 -1 -3 1 -3 6 -3 -8 2 2 10 -1 -1 10 9 -7 4 -8
-4 -5 -5 -3 -4 -0 -0 -10 -4 -5 -0 1 -1 -4 -0 2 0 1 2 0 3 1 2 4 3 -1 3 -2 0 2 8 3 -5 -5 -10 12 -1 5 -3 5 7 -7 -14 -10
0 1 0 -3 -3 1 2 -4 -4 -2 -5 2 3 -2 -1 0 -1 0 1 1 3 -1 -2 -2 -3 5 1 -3 0 -1 6 -5 8 -6 -0 2 1 -1 -2 4 -5 12 -5 1
2 -1 6 -5 -3 -4 0 3 2 1 -1 -0 1 3 1 1 2 2 -2 3 1 -1 -1 8 -11 2 9 -6 -3 4 -1 -3 1 -20 3 5 -6 -3 4 3 4 -1 4 -15
1 -1 2 4 6 5 1 -1 -1 2 1 -3 -1 -3 2 -0 1 -1 2 3 -1 -2 1 3 3 0 1 -0 -3 5 3 2 4 -11 7 1 -7 0 0 -0 -2 0 -1 4
3 3 4 6 4 14 9 2 -0 2 -6 2 1 1 4 3 7 6 -3 5 9 2 -1 -5 1 0 -1 4 4 6 -1 4 4 -10 2 -4 -2 4 2 -6 2 2 -2 -5
5 2 1 0 1 7 10 9 13 5 -2 -1 -4 -0 -3 -1 7 2 -4 6 6 4 3 -8 -13 -4 -0 3 2 1 0 2 -1 1 1 -10 -14 1 -1 -0 -2 0 -3 3
3 0 -0 1 2 3 10 10 10 5 5 -15 -3 -5 3 -8 1 7 4 0 -3 6 -2 1 -1 -2 -0 1 2 1 2 3 4 5 1 -1 0 2 0 -5 -8 -6 -6 1
0 1 3 4 -1 1 10 -8 21 21 6 0 -2 -3 5 0 4 2 0 0 -1 1 2 1 2 -4 2 -1 -1 0 1 -0 -1 2 2 -12 -3 5 3 0 -5 1 -2 -3
3 4 3 2 2 2 6 -1 5 13 7 -1 -11 1 6 3 -3 17 9 -1 -5 1 -1 -1 -2 0 1 -1 1 -3 5 2 -3 2 2 -9 2 4 1 2 -1 2 9 1
1 1 -1 -1 1 3 11 4 3 2 12 -2 -5 5 3 3 5 1 5 5 4 9 -4 -2 -1 1 0 1 -3 -1 -4 -5 -4 -1 -11 1 -0 3 4 -1 -0 5 3 5
0 2 -0 2 2 2 10 10 14 -1 9 -10 -5 6 -3 -5 -2 -2 6 -1 3 -2 9 1 -0 -2 1 0 -6 4 -5 4 -2 15 -3 14 6 -1 14 -3 2 -3 -0 2
0 2 2 1 0 -1 4 1 1 30 9 -0 -2 6 4 4 3 0 2 8 0 3 3 1 3 9 5 0 2 2 10 10 5 5 4 -2 3 1 1 -2 -0 2 0 0
-1 4 -1 1 2 -2 1 -0 -0 2 3 3 -9 6 2 -1 2 3 -1 2 3 2 4 4 -2 2 8 -1 -0 -3 3 -1 0 -2 2 0 1 -0 0 0 0 -0 1 -1
-1 4 2 3 -0 1 -4 -5 2 0 -7 6 -4 -11 -4 1 1 2 0 1 3 1 -1 -1 -1 3 8 3 -6 1 2 2 2 -3 0 -0 -1 -0 -0 -1 -1 -2 -1 -1
1 2 8 -2 -1 -0 -3 -1 -1 0 3 1 -4 -5 -1 -2 0 0 2 2 2 4 3 0 6 6 8 -4 -5 4 2 2 -1 -2 -0 0 1 1 -1 -0 -1 -1 -1 -1
2 2 6 -1 2 -4 -4 -0 -2 1 2 3 -1 -7 -2 1 1 1 1 1 3 1 4 0 1 1 0 -3 -1 -0 0 0 -1 -1 0 1 0 -0 -1 -1 -1 -1 -1 -1
-0 11 5 -0 -1 -1 2 -1 -5 -3 9 5 -1 -2 -2 -0 1 0 -2 0 -0 -0 -0 1 1 0 -1 1 1 1 1 0 -0 -0 -0 0 0 -1 -1 -1 -1 -1 -1 -1
2 -4 5 -2 2 1 -4 -4 -3 1 1 0 -2 2 -1 3 3 -3 1 1 1 1 1 0 -0 2 2 0 -0 1 -1 -1 0 0 -1 -0 -1 -0 -0 -0 -1 -0 -0 -0
-4 3 4 1 -0 -2 -2 -1 -2 -2 -1 -1 1 2 0 -0 1 3 3 1 1 1 0 -0 -0 2 1 1 1 -0 0 0 0 -1 -0 -0 -0 0 -0 -0 0 1 1 1
-3 3 0 -2 -0 -1 -2 -3 -2 -1 -1 -1 0 0 0 -0 1 1 1 0 -0 -1 -1 -1 0 1 1 0 0 -0 -0 0 -1 -1 1 0 1 1 0 0 1 1 0 0
-2 5 -4 1 -1 -2 -3 -3 -1 -1 -0 1 -0 1 3 0 1 0 0 -0 -0 0 -1 -1 1 2 2 2 0 0 0 -0 -0 1 1 1 0 1 1 1 1 1 1 0
6 -6 -2 1 -2 -1 -1 -0 0 0 1 0 -0 0 1 1 -0 1 0 -0 -0 -0 -1 -0 1 1 1 -1 -1 -1 0 1 1 0 0 0 1 1 1 1 0 -0 -0 -0
-8 -5 1 -1 -1 -2 -3 -1 -1 -1 1 1 -0 -1 2 1 -0 -0 0 -0 -0 -0 1 0 -0 -1 -1 -1 -1 -1 -0 1 1 2 1 1 1 1 0 -0 -0 -0 -0 -0
-5 -1 0 -0 0 -1 -0 2 1 -1 -1 1 0 -1 0 -1 -0 -0 0 -1 -0 2 4 2 1 0 -0 0 -0 -1 -1 -0 1 1 2 2 1 1 1 0 -0 -0 0 0
-4 -1 -2 -3 -1 2 2 4 -1 0 -1 2 -1 0 -0 -0 -0 -1 -1 0 1 1 -0 0 0 1 1 1 0 -0 -0 0 1 2 2 1 2 1 0 -0 0 -0 0 -0
Height
3080 3074 3068 3062 3056 3051 3049 3042 3040 3036 3031 3031 3024 3022 3017 3014 3011 3008 3004 3001 3000 2999 2997 2995 2995 2995 2995 2995 2993 2992 2991 2991 2988 2989 2988 2987 2986 2984 2985 2984 2983 2980 2977 2971
3073 3068 3063 3057 3051 3044 3041 3036 3032 3028 3024 3023 3021 3017 3014 3009 3005 3002 3000 2998 2995 2993 2993 2994 2989 2990 2991 2991 2990 2990 2989 2987 2985 2983 2984 2982 2980 2981 2981 2979 2977 2973 2975 2971
3068 3063 3058 3052 3047 3040 3036 3032 3027 3022 3018 3016 3014 3010 3008 3005 3001 2997 2994 2994 2992 2989 2989 2989 2986 2986 2986 2986 2986 2985 2985 2982 2983 2981 2980 2981 2979 2977 2977 2976 2971 2968 2966 2965
3062 3056 3050 3045 3040 3034 3031 3026 3021 3014 3013 3012 3009 3005 3003 2999 2996 2993 2991 2989 2988 2986 2986 2983 2982 2982 2980 2980 2979 2979 2979 2976 2976 2974 2972 2973 2971 2969 2968 2966 2963 2961 2957 2959
3054 3049 3042 3038 3032 3025 3023 3021 3017 3009 3003 3004 3002 3000 2997 2995 2992 2991 2988 2986 2984 2983 2981 2980 2976 2975 2974 2973 2972 2972 2972 2971 2970 2968 2966 2964 2962 2959 2957 2956 2955 2954 2953 2949
3046 3040 3035 3030 3025 3018 3012 3010 3008 3001 2996 2996 2995 2994 2992 2990 2987 2985 2983 2981 2979 2978 2976 2974 2971 2970 2969 2967 2966 2966 2967 2967 2966 2961 2959 2958 2956 2952 2951 2950 2949 2949 2947 2946
3034 3029 3024 3021 3020 3015 3008 3004 3001 2996 2989 2990 2990 2988 2986 2984 2983 2980 2979 2977 2974 2974 2970 2967 2964 2960 2960 2959 2959 2960 2960 2962 2963 2958 2956 2958 2950 2948 2947 2946 2946 2945 2944 2942
3021 3016 3013 3011 3009 3008 3002 2999 2995 2989 2981 2983 2983 2982 2979 2977 2976 2974 2972 2972 2970 2967 2966 2962 2958 2955 2955 2954 2953 2954 2955 2957 2958 2955 2953 2950 2945 2945 2944 2943 2943 2943 2941 2940
3010 3005 3001 2998 2997 2997 2993 2990 2988 2983 2977 2975 2976 2975 2975 2972 2967 2967 2967 2966 2964 2964 2962 2961 2958 2956 2952 2952 2951 2951 2952 2953 2955 2952 2952 2949 2942 2941 2940 2940 2939 2938 2938 2937
2999 2995 2991 2987 2986 2985 2984 2979 2978 2973 2968 2967 2969 2966 2966 2965 2965 2961 2960 2960 2959 2959 2956 2956 2955 2953 2952 2949 2948 2949 2950 2950 2949 2948 2947 2942 2938 2937 2937 2938 2941 2936 2935 2934
2988 2984 2980 2977 2976 2974 2973 2970 2971 2969 2962 2959 2960 2958 2959 2958 2957 2955 2956 2956 2954 2953 2952 2953 2952 2951 2950 2948 2947 2947 2948 2947 2945 2943 2942 2939 2934 2934 2935 2934 2932 2931 2930 2929
2978 2975 2972 2970 2967 2966 2964 2961 2962 2960 2958 2954 2953 2953 2954 2951 2950 2950 2949 2949 2949 2949 2950 2950 2950 2948 2946 2944 2941 2941 2941 2940 2939 2940 2936 2933 2931 2929 2926 2925 2926 2925 2924 2923
2971 2968 2966 2963 2960 2958 2956 2954 2953 2952 2950 2948 2945 2947 2946 2945 2944 2944 2943 2942 2943 2943 2944 2944 2945 2943 2940 2937 2934 2933 2933 2935 2932 2932 2927 2925 2923 2922 2920 2920 2919 2918 2918 2918
2964 2961 2959 2956 2953 2950 2949 2947 2947 2946 2945 2943 2943 2942 2941 2940 2939 2936 2934 2935 2935 2936 2938 2938 2938 2937 2934 2931 2931 2928 2929 2926 2924 2922 2921 2919 2918 2917 2915 2913 2912 2913 2913 2913
2956 2954 2952 2950 2947 2944 2942 2941 2941 2941 2943 2939 2938 2937 2936 2933 2931 2930 2929 2930 2930 2931 2932 2932 2931 2930 2929 2925 2922 2918 2919 2917 2917 2916 2915 2914 2913 2911 2909 2906 2905 2905 2907 2908
2948 2947 2946 2944 2941 2939 2937 2937 2938 2937 2937 2936 2933 2931 2929 2926 2925 2924 2923 2924 2924 2925 2926 2926 2924 2924 2925 2920 2915 2914 2913 2912 2911 2911 2910 2909 2908 2906 2904 2902 2900 2901 2903 2904
2942 2941 2940 2938 2936 2936 2935 2936 2935 2934 2934 2933 2930 2928 2926 2925 2924 2924 2922 2921 2921 2922 2921 2919 2918 2919 2919 2914 2911 2911 2909 2907 2905 2906 2907 2907 2906 2905 2904 2903 2902 2902 2903 2904
2935 2935 2934 2933 2932 2932 2932 2932 2932 2932 2931 2929 2928 2926 2924 2923 2922 2922 2920 2918 2917 2915 2914 2913 2913 2913 2913 2910 2910 2909 2908 2906 2906 2906 2905 2905 2905 2905 2904 2904 2904 2904 2904 2904
2929 2930 2929 2930 2929 2929 2929 2929 2928 2927 2930 2925 2924 2924 2924 2922 2921 2919 2916 2914 2912 2911 2910 2910 2911 2910 2909 2909 2909 2908 2907 2907 2906 2906 2905 2906 2906 2905 2905 2905 2905 2905 2905 2904
2924 2927 2927 2926 2927 2927 2928 2926 2926 2924 2923 2922 2920 2921 2921 2922 2919 2916 2915 2912 2910 2909 2910 2909 2908 2908 2909 2908 2908 2907 2906 2906 2906 2906 2906 2906 2906 2906 2906 2906 2906 2905 2905 2904
2922 2923 2924 2925 2925 2926 2925 2923 2924 2923 2922 2920 2920 2919 2918 2918 2917 2915 2914 2911 2910 2909 2910 2909 2908 2909 2909 2907 2906 2906 2906 2905 2905 2906 2906 2906 2906 2906 2906 2905 2905 2904 2903 2903
2920 2922 2923 2924 2925 2924 2925 2923 2923 2922 2922 2921 2920 2920 2919 2916 2914 2912 2912 2910 2910 2909 2909 2909 2908 2910 2908 2907 2906 2905 2905 2905 2905 2905 2905 2905 2905 2905 2905 2904 2903 2903 2902 2901
2919 2921 2923 2924 2925 2925 2924 2924 2923 2923 2922 2921 2921 2920 2918 2915 2913 2912 2911 2910 2909 2909 2908 2908 2909 2909 2908 2906 2905 2905 2905 2905 2904 2904 2904 2904 2903 2903 2903 2902 2901 2900 2899 2897
2919 2922 2924 2925 2925 2925 2925 2924 2924 2923 2922 2921 2920 2919 2918 2914 2913 2911 2910 2910 2909 2908 2907 2908 2908 2908 2907 2906 2905 2904 2903 2903 2902 2902 2902 2901 2901 2900 2900 2899 2898 2897 2896 2894
2922 2924 2925 2925 2926 2926 2925 2925 2924 2923 2921 2920 2919 2917 2916 2913 2912 2911 2910 2909 2907 2906 2907 2906 2906 2906 2905 2904 2903 2902 2901 2900 2899 2899 2898 2898 2898 2897 2897 2896 2895 2893 2892 2890
2925 2926 2926 2926 2927 2926 2925 2924 2923 2922 2920 2918 2918 2916 2914 2912 2911 2910 2908 2908 2907 2907 2906 2905 2904 2903 2902 2901 2900 2898 2897 2896 2895 2894 2893 2893 2893 2893 2893 2892 2891 2890 2888 2886
2927 2927 2927 2928 2927 2925 2924 2923 2921 2919 2918 2917 2917 2916 2914 2913 2910 2909 2908 2907 2907 2906 2904 2903 2901 2900 2898 2896 2894 2893 2891 2890 2889 2888 2887 2888 2889 2889 2888 2888 2887 2885 2884 2882